• In Hungary
  • List of Countries
  • For 7 days
  • Water Temperature
  • Satellite Maps
  • Weather Map
  • News
  • Weather Widgets
  • user-avatar
    Login

    Hourly Weather Newark

    Today, 23 October, Monday

    Time Temperature Precipitation Wind Pressure Humidity
    00:00 +16°C° 0 mm 2 mps 769 mmHg 76%
    01:00 +16°C° 0 mm 1 mps 769 mmHg 81%
    02:00 +16°C° 0 mm 1 mps 769 mmHg 83%
    03:00 +16°C° 0 mm 1 mps 768 mmHg 85%
    04:00 +16°C° 0 mm 2 mps 768 mmHg 87%
    05:00 +16°C° 0 mm 2 mps 768 mmHg 89%
    06:00 +16°C° 0 mm 2 mps 768 mmHg 90%
    07:00 +16°C° 0 mm 2 mps 768 mmHg 92%
    08:00 +18°C° 0 mm 2 mps 767 mmHg 84%
    09:00 +20°C° 0 mm 3 mps 767 mmHg 75%
    10:00 +22°C° 0 mm 3 mps 767 mmHg 67%
    11:00 +23°C° 0 mm 4 mps 766 mmHg 66%
    12:00 +23°C° 0 mm 4 mps 766 mmHg 65%
    13:00 +23°C° 0 mm 4 mps 765 mmHg 64%
    14:00 +23°C° 0 mm 5 mps 764 mmHg 66%
    15:00 +22°C° 0 mm 5 mps 763 mmHg 69%
    16:00 +22°C° 0 mm 5 mps 763 mmHg 72%
    17:00 +22°C° 0.1 mm 5 mps 762 mmHg 73%
    18:00 +22°C° 0.1 mm 5 mps 762 mmHg 75%
    19:00 +22°C° 0.1 mm 6 mps 762 mmHg 77%
    20:00 +22°C° 0.1 mm 6 mps 761 mmHg 78%
    21:00 +22°C° 0.1 mm 6 mps 761 mmHg 79%
    22:00 +22°C° 0.1 mm 7 mps 760 mmHg 80%
    23:00 +22°C° 0.1 mm 7 mps 760 mmHg 80%

    Tomorrow, 24 October, Tuesday

    Time Temperature Precipitation Wind Pressure Humidity
    00:00 +22°C° 0.1 mm 7 mps 759 mmHg 81%
    01:00 +22°C° 0.1 mm 7 mps 758 mmHg 81%
    02:00 +22°C° 0.1 mm 7 mps 758 mmHg 81%
    03:00 +22°C° 0.1 mm 7 mps 757 mmHg 81%
    04:00 +22°C° 0.1 mm 8 mps 757 mmHg 81%
    05:00 +22°C° 0.5 mm 8 mps 757 mmHg 81%
    06:00 +22°C° 0.5 mm 8 mps 756 mmHg 82%
    07:00 +22°C° 0.5 mm 8 mps 756 mmHg 83%
    08:00 +23°C° 0.5 mm 9 mps 756 mmHg 81%
    09:00 +23°C° 0.5 mm 9 mps 756 mmHg 79%
    10:00 +24°C° 0.5 mm 9 mps 756 mmHg 77%
    11:00 +24°C° 1.1 mm 9 mps 755 mmHg 77%
    12:00 +24°C° 1.1 mm 9 mps 755 mmHg 78%
    13:00 +24°C° 1.1 mm 9 mps 755 mmHg 78%
    14:00 +24°C° 1.8 mm 9 mps 754 mmHg 80%
    15:00 +23°C° 1.8 mm 9 mps 754 mmHg 81%
    16:00 +23°C° 1.8 mm 9 mps 754 mmHg 83%
    17:00 +23°C° 2.9 mm 8 mps 754 mmHg 85%
    18:00 +22°C° 2.9 mm 8 mps 754 mmHg 86%
    19:00 +22°C° 2.9 mm 7 mps 755 mmHg 88%
    20:00 +22°C° 2.2 mm 7 mps 754 mmHg 88%
    21:00 +21°C° 2.2 mm 6 mps 754 mmHg 89%
    22:00 +21°C° 2.2 mm 5 mps 754 mmHg 89%
    23:00 +20°C° 1 mm 5 mps 754 mmHg 88%

    Day after tomorrow, 25 October, Wednesday

    Time Temperature Precipitation Wind Pressure Humidity
    00:00 +19°C° 1 mm 4 mps 754 mmHg 87%
    01:00 +18°C° 1 mm 3 mps 754 mmHg 86%
    02:00 +17°C° 0.1 mm 3 mps 754 mmHg 83%
    03:00 +16°C° 0.1 mm 3 mps 754 mmHg 80%
    04:00 +14°C° 0.1 mm 3 mps 754 mmHg 78%
    05:00 +14°C° 0 mm 3 mps 754 mmHg 75%
    06:00 +13°C° 0 mm 3 mps 755 mmHg 72%
    07:00 +13°C° 0 mm 3 mps 755 mmHg 70%
    08:00 +14°C° 0 mm 3 mps 755 mmHg 63%
    09:00 +16°C° 0 mm 3 mps 755 mmHg 57%
    10:00 +17°C° 0 mm 3 mps 755 mmHg 51%
    11:00 +18°C° 0 mm 3 mps 755 mmHg 47%
    12:00 +19°C° 0 mm 3 mps 755 mmHg 43%
    13:00 +19°C° 0 mm 3 mps 754 mmHg 39%
    14:00 +19°C° 0 mm 3 mps 754 mmHg 40%
    15:00 +18°C° 0 mm 3 mps 754 mmHg 41%
    16:00 +18°C° 0 mm 3 mps 754 mmHg 42%
    17:00 +17°C° 0 mm 4 mps 755 mmHg 46%
    18:00 +14°C° 0 mm 4 mps 756 mmHg 49%
    19:00 +13°C° 0 mm 4 mps 757 mmHg 53%
    20:00 +13°C° 0 mm 4 mps 757 mmHg 56%
    21:00 +12°C° 0 mm 4 mps 757 mmHg 59%
    22:00 +11°C° 0 mm 4 mps 757 mmHg 62%
    23:00 +11°C° 0 mm 4 mps 758 mmHg 63%

    26 October, Thursday

    Time Temperature Precipitation Wind Pressure Humidity
    00:00 +10°C° 0 mm 4 mps 758 mmHg 64%
    01:00 +10°C° 0 mm 4 mps 758 mmHg 64%
    02:00 +8°C° 0 mm 4 mps 759 mmHg 66%
    03:00 +9°C° 0 mm 3 mps 759 mmHg 67%
    04:00 +8°C° 0 mm 3 mps 760 mmHg 68%
    05:00 +8°C° 0 mm 3 mps 760 mmHg 68%
    06:00 +8°C° 0 mm 3 mps 761 mmHg 68%
    07:00 +8°C° 0 mm 3 mps 761 mmHg 68%
    08:00 +10°C° 0 mm 2 mps 762 mmHg 60%
    09:00 +12°C° 0 mm 2 mps 762 mmHg 52%
    10:00 +14°C° 0 mm 2 mps 762 mmHg 44%
    11:00 +15°C° 0 mm 2 mps 762 mmHg 41%
    12:00 +16°C° 0 mm 2 mps 762 mmHg 38%
    13:00 +17°C° 0 mm 2 mps 762 mmHg 34%
    14:00 +17°C° 0 mm 2 mps 762 mmHg 37%
    15:00 +17°C° 0 mm 2 mps 762 mmHg 40%
    16:00 +18°C° 0 mm 1 mps 762 mmHg 43%
    17:00 +16°C° 0 mm 1 mps 762 mmHg 47%
    18:00 +15°C° 0 mm 1 mps 763 mmHg 50%
    19:00 +13°C° 0 mm 1 mps 763 mmHg 54%
    20:00 +13°C° 0 mm 1 mps 763 mmHg 55%
    21:00 +13°C° 0 mm 1 mps 763 mmHg 57%
    22:00 +12°C° 0 mm 1 mps 763 mmHg 58%
    23:00 +11°C° 0 mm 0 mps 763 mmHg 59%

    27 October, Friday

    Time Temperature Precipitation Wind Pressure Humidity
    00:00 +11°C° 0 mm 0 mps 762 mmHg 60%
    01:00 +10°C° 0 mm 0 mps 762 mmHg 60%
    02:00 +10°C° 0 mm 0 mps 762 mmHg 61%
    03:00 +11°C° 0 mm 1 mps 762 mmHg 61%
    04:00 +11°C° 0 mm 1 mps 762 mmHg 62%
    05:00 +11°C° 0 mm 1 mps 762 mmHg 62%
    06:00 +11°C° 0 mm 1 mps 762 mmHg 62%
    07:00 +10°C° 0 mm 2 mps 762 mmHg 63%
    08:00 +13°C° 0 mm 2 mps 762 mmHg 56%
    09:00 +15°C° 0 mm 2 mps 762 mmHg 50%
    10:00 +17°C° 0 mm 2 mps 761 mmHg 44%
    11:00 +18°C° 0 mm 2 mps 761 mmHg 41%
    12:00 +20°C° 0 mm 1 mps 760 mmHg 38%
    13:00 +21°C° 0 mm 1 mps 759 mmHg 35%
    14:00 +21°C° 0 mm 1 mps 759 mmHg 37%
    15:00 +20°C° 0 mm 1 mps 759 mmHg 39%
    16:00 +20°C° 0 mm 1 mps 759 mmHg 41%
    17:00 +18°C° 0 mm 1 mps 759 mmHg 45%
    18:00 +16°C° 0 mm 1 mps 759 mmHg 49%
    19:00 +15°C° 0 mm 1 mps 759 mmHg 52%
    20:00 +14°C° 0 mm 1 mps 759 mmHg 55%
    21:00 +14°C° 0 mm 1 mps 759 mmHg 58%
    22:00 +12°C° 0 mm 0 mps 759 mmHg 62%
    23:00 +12°C° 0 mm 0 mps 759 mmHg 63%

    28 October, Saturday

    Time Temperature Precipitation Wind Pressure Humidity
    00:00 +13°C° 0 mm 1 mps 759 mmHg 65%
    01:00 +12°C° 0 mm 1 mps 758 mmHg 67%
    02:00 +12°C° 0 mm 1 mps 758 mmHg 68%
    03:00 +12°C° 0 mm 1 mps 758 mmHg 68%
    04:00 +11°C° 0 mm 1 mps 758 mmHg 69%
    05:00 +11°C° 0 mm 1 mps 758 mmHg 69%
    06:00 +11°C° 0 mm 1 mps 758 mmHg 69%
    07:00 +11°C° 0 mm 1 mps 758 mmHg 69%
    08:00 +12°C° 0 mm 0 mps 758 mmHg 62%
    09:00 +14°C° 0 mm 0 mps 758 mmHg 55%
    10:00 +17°C° 0 mm 0 mps 758 mmHg 48%
    11:00 +19°C° 0 mm 1 mps 757 mmHg 45%
    12:00 +20°C° 0 mm 1 mps 757 mmHg 43%
    13:00 +20°C° 0 mm 2 mps 756 mmHg 40%
    14:00 +19°C° 0 mm 2 mps 756 mmHg 42%
    15:00 +19°C° 0 mm 2 mps 756 mmHg 44%
    16:00 +19°C° 0 mm 2 mps 756 mmHg 46%
    17:00 +17°C° 0 mm 3 mps 756 mmHg 52%
    18:00 +16°C° 0 mm 3 mps 757 mmHg 58%
    19:00 +14°C° 0 mm 3 mps 757 mmHg 64%
    20:00 +13°C° 0 mm 3 mps 757 mmHg 67%
    21:00 +12°C° 0 mm 3 mps 756 mmHg 70%
    22:00 +10°C° 0 mm 3 mps 756 mmHg 74%
    23:00 +10°C° 0 mm 3 mps 756 mmHg 74%

    29 October, Sunday

    Time Temperature Precipitation Wind Pressure Humidity
    00:00 +10°C° 0 mm 2 mps 756 mmHg 74%
    01:00 +10°C° 0 mm 2 mps 755 mmHg 74%
    02:00 +10°C° 0.1 mm 3 mps 755 mmHg 76%
    03:00 +9°C° 0.1 mm 3 mps 755 mmHg 77%
    04:00 +9°C° 0.1 mm 3 mps 754 mmHg 79%
    05:00 +9°C° 0.4 mm 3 mps 754 mmHg 80%
    06:00 +9°C° 0.4 mm 3 mps 754 mmHg 81%
    07:00 +9°C° 0.4 mm 3 mps 754 mmHg 82%
    08:00 +9°C° 0.6 mm 3 mps 753 mmHg 82%
    09:00 +9°C° 0.6 mm 3 mps 753 mmHg 82%
    10:00 +9°C° 0.6 mm 3 mps 752 mmHg 82%
    11:00 +9°C° 0.4 mm 3 mps 752 mmHg 82%
    12:00 +9°C° 0.4 mm 2 mps 751 mmHg 83%
    13:00 +9°C° 0.4 mm 2 mps 750 mmHg 83%
    14:00 +9°C° 0.8 mm 3 mps 750 mmHg 84%
    15:00 +9°C° 0.8 mm 3 mps 749 mmHg 84%
    16:00 +7°C° 0.8 mm 4 mps 749 mmHg 85%
    17:00 +7°C° 0.1 mm 4 mps 749 mmHg 84%
    18:00 +7°C° 0.1 mm 4 mps 749 mmHg 84%
    19:00 +6°C° 0.1 mm 4 mps 749 mmHg 83%
    20:00 +6°C° 0 mm 5 mps 749 mmHg 81%
    21:00 +6°C° 0 mm 5 mps 749 mmHg 80%
    22:00 +5°C° 0 mm 6 mps 748 mmHg 78%
    23:00 +4°C° 0 mm 6 mps 748 mmHg 77%
    Show more